DW2973 Frederiksvaerk DK current weather conditions

sailwx.info

Wind from 123

Air temperature 6.1° C
Dewpoint 4.4° C

Last reported at 2018-Nov-16 05:01 UTC.
Time now 2018-Nov-16 05:33 UTC

Location: N 55°59' E 011°59'.
View on Google Maps.

See reports from other nearby stations

  
Tides and Currents Weather Stations Pressure Air Temp Water Temp Dewpoint Dewpoint Depression Visibility Wind Speed Wind Dir Waves Ship Positions
date/time (UTC)wind fromknots sea level pressurealtimeterstation pressurevisibilityair tempwater tempwave heightnotes
2018-Nov-16 05:01 123 6.1
2018-Nov-16 04:45 126 0 6.1
2018-Nov-16 04:30 109 0 6.1
2018-Nov-16 04:15 149 6.1
2018-Nov-16 04:00 123 6.7
2018-Nov-16 03:45 179 0 6.7
2018-Nov-16 03:31 128 0 6.7
2018-Nov-16 03:15 150 0 6.7
2018-Nov-16 03:00 156 0 6.7
2018-Nov-16 02:45 101 6.7
2018-Nov-16 02:30 124 0 6.7
2018-Nov-16 02:15 177 0 6.7
2018-Nov-16 02:00 199 1 6.7
2018-Nov-16 01:45 101 0 6.7
2018-Nov-16 01:30 139 0 6.7
2018-Nov-16 01:15 080 1 6.7
2018-Nov-16 01:00 116 0 6.7
2018-Nov-16 00:45 102 0 6.7
2018-Nov-16 00:30 167 0 6.7
2018-Nov-16 00:15 150 0 6.7
2018-Nov-16 00:00 211 0 6.7
2018-Nov-15 23:45 132 1 6.7
2018-Nov-15 23:31 103 1 7.2
2018-Nov-15 23:16 115 0 7.2
2018-Nov-15 23:02 119 0 7.2
2018-Nov-15 22:46 079 0 7.2
2018-Nov-15 22:31 074 1 7.2
2018-Nov-15 22:16 134 0 7.8
2018-Nov-15 22:01 115 7.8
2018-Nov-15 21:46 111 0 7.8
2018-Nov-15 21:31 137 0 7.8
2018-Nov-15 21:17 146 0 7.8
2018-Nov-15 21:01 113 7.2
2018-Nov-15 20:46 111 0 7.2
2018-Nov-15 20:30 130 0 7.2
2018-Nov-15 20:16 148 0 7.2
2018-Nov-15 20:01 130 7.2
2018-Nov-15 19:46 134 7.2
2018-Nov-15 19:32 119 0 7.2
2018-Nov-15 19:16 124 0 7.2
2018-Nov-15 19:01 126 7.2
2018-Nov-15 18:46 129 7.2
2018-Nov-15 18:31 141 0 7.2
2018-Nov-15 18:16 106 7.2
2018-Nov-15 18:01 140 7.8
2018-Nov-15 17:45 106 0 7.8
2018-Nov-15 17:30 119 7.8
2018-Nov-15 17:16 101 7.8
2018-Nov-15 17:00 176 7.8
2018-Nov-15 16:45 110 8.3
2018-Nov-15 16:30 111 8.3
2018-Nov-15 16:15 138 0 8.3
2018-Nov-15 16:00 121 8.3
2018-Nov-15 15:45 117 8.9
2018-Nov-15 15:30 159 8.9
2018-Nov-15 15:15 129 8.9
2018-Nov-15 15:00 127 9.4
2018-Nov-15 14:45 117 10.0
2018-Nov-15 14:30 119 10.0
2018-Nov-15 14:15 157 10.6
2018-Nov-15 14:00 160 10.6
2018-Nov-15 13:45 153 10.6
2018-Nov-15 13:30 141 10.6
2018-Nov-15 13:15 181 10.6
2018-Nov-15 13:00 183 0 11.1
2018-Nov-15 12:45 169 10.6
2018-Nov-15 12:30 136 10.6
2018-Nov-15 12:15 128 10.6
2018-Nov-15 12:00 168 10.6
2018-Nov-15 11:45 196 10.6
2018-Nov-15 11:33 196 10.0
2018-Nov-15 11:17 125 10.0
2018-Nov-15 11:01 128 10.0
2018-Nov-15 10:46 161 10.0
2018-Nov-15 10:31 158 9.4
2018-Nov-15 10:17 148 8.9
2018-Nov-15 10:01 150 8.9
2018-Nov-15 09:46 130 8.9
2018-Nov-15 09:32 140 8.9
2018-Nov-15 09:16 178 8.9
2018-Nov-15 09:01 163 8.9
2018-Nov-15 08:47 165 8.9
2018-Nov-15 08:30 122 8.3
2018-Nov-15 08:16 121 8.3
2018-Nov-15 08:01 198 8.3
2018-Nov-15 07:46 171 8.3
2018-Nov-15 07:31 206 8.3
2018-Nov-15 07:16 150 8.3
2018-Nov-15 07:01 132 8.3
2018-Nov-15 06:46 124 8.3
2018-Nov-15 06:30 186 8.3
2018-Nov-15 06:15 180 8.3
2018-Nov-15 06:01 179 8.3
2018-Nov-15 05:45 144 8.3
2018-Nov-15 05:30 123 8.3
2018-Nov-15 05:16 180 7.8
2018-Nov-15 05:01 145 7.8
2018-Nov-15 04:46 119 7.8
2018-Nov-15 04:30 109 7.8
2018-Nov-15 04:16 101 7.8
2018-Nov-15 04:00 130 8.3
2018-Nov-15 03:45 163 8.3
2018-Nov-15 03:30 119 8.3
2018-Nov-15 03:15 156 8.3
2018-Nov-15 03:00 163 8.3
2018-Nov-15 02:45 166 8.3
2018-Nov-15 02:31 163 8.3
2018-Nov-15 02:15 171 8.3
2018-Nov-15 02:00 166 8.3
2018-Nov-15 01:45 184 8.3
2018-Nov-15 01:30 141 8.3
2018-Nov-15 01:15 161 8.3
2018-Nov-15 01:00 138 8.3
2018-Nov-15 00:45 138 8.3
2018-Nov-15 00:30 134 8.3
2018-Nov-15 00:15 178 8.3
2018-Nov-15 00:00 178 8.3
2018-Nov-14 23:45 178 8.3
2018-Nov-14 23:30 119 8.3
2018-Nov-14 23:15 113 8.3
2018-Nov-14 23:00 223 8.3
2018-Nov-14 22:45 223 8.3
2018-Nov-14 22:30 223 8.3
2018-Nov-14 22:15 209 8.3
2018-Nov-14 22:00 198 8.3
2018-Nov-14 21:45 208 8.3
2018-Nov-14 21:30 209 8.3
2018-Nov-14 21:15 201 0 8.3
2018-Nov-14 21:00 204 0 8.3
2018-Nov-14 20:45 210 2 8.3
2018-Nov-14 20:31 219 5 8.3
2018-Nov-14 20:17 214 4 8.3
2018-Nov-14 20:01 212 2 8.3
2018-Nov-14 19:47 203 1 8.3
2018-Nov-14 19:31 214 0 8.3
2018-Nov-14 19:16 213 0 8.3
2018-Nov-14 19:02 210 3 8.3
2018-Nov-14 18:46 189 8.3
2018-Nov-14 18:31 150 8.3
2018-Nov-14 18:15 198 8.3
2018-Nov-14 18:01 183 0 8.3
2018-Nov-14 17:46 215 1 8.3
2018-Nov-14 17:31 194 8.3
2018-Nov-14 17:16 180 8.9
2018-Nov-14 17:01 207 0 8.9
2018-Nov-14 16:46 215 0 8.9
2018-Nov-14 16:31 217 8.9
2018-Nov-14 16:16 217 8.9
2018-Nov-14 16:01 217 8.9
2018-Nov-14 15:46 217 0 8.9
2018-Nov-14 15:31 225 3 9.4
2018-Nov-14 15:16 218 4 9.4
2018-Nov-14 15:00 217 1 9.4
2018-Nov-14 14:46 212 0 9.4
2018-Nov-14 14:31 214 4 9.4
2018-Nov-14 14:16 223 3 9.4
2018-Nov-14 14:01 213 3 9.4
2018-Nov-14 13:45 227 2 9.4
2018-Nov-14 13:30 212 4 9.4
2018-Nov-14 13:15 218 2 10.0
2018-Nov-14 13:01 223 1 10.0
2018-Nov-14 12:45 228 2 10.0
2018-Nov-14 12:30 228 4 10.0
2018-Nov-14 12:16 216 4 10.0
2018-Nov-14 12:00 229 2 10.0
2018-Nov-14 11:46 219 1 10.0
2018-Nov-14 11:31 218 0 10.0
2018-Nov-14 11:16 227 1 10.0
2018-Nov-14 11:00 235 0 10.0
2018-Nov-14 10:45 259 1 10.0
2018-Nov-14 10:31 242 3 10.0
2018-Nov-14 10:15 246 2 10.0
2018-Nov-14 10:01 222 10.0
2018-Nov-14 09:45 272 10.0
2018-Nov-14 09:30 248 0 9.4
2018-Nov-14 09:15 253 0 9.4
2018-Nov-14 09:00 229 0 9.4
2018-Nov-14 08:45 223 0 9.4
2018-Nov-14 08:30 230 2 9.4
2018-Nov-14 08:15 226 0 8.9
2018-Nov-14 08:00 229 3 8.9
2018-Nov-14 07:45 238 3 8.9
2018-Nov-14 07:30 222 0 8.9
2018-Nov-14 07:17 245 8.3
2018-Nov-14 07:01 248 8.9
2018-Nov-14 06:46 230 0 8.9
2018-Nov-14 06:32 225 0 8.9
2018-Nov-14 06:17 242 8.9
2018-Nov-14 06:01 244 1 8.9
2018-Nov-14 05:46 252 0 8.9
2018-Nov-14 05:32 230 1 8.9
2018-Nov-14 05:16 257 1 8.9
2018-Nov-14 05:01 250 1 8.9